Time,TemperatureF,DewpointF,PressureIn,WindDirection,WindDirectionDegrees,WindSpeedMPH,WindSpeedGustMPH,Humidity,HourlyPrecipIn,Conditions,Clouds,dailyrainin,SoftwareType,DateUTC
2013-06-22 00:01:00,60.0,49.0,30.32,East,90,0.0,0.0,67,0.00,,---,0.19,VWS V14.01,2013-06-22 04:01:00,
2013-06-22 00:06:00,59.7,48.7,30.32,East,90,0.0,0.0,67,0.00,,---,0.00,VWS V14.01,2013-06-22 04:06:00,
2013-06-22 00:11:00,59.5,48.9,30.33,East,90,0.0,0.0,68,0.00,,---,0.00,VWS V14.01,2013-06-22 04:11:00,
2013-06-22 00:16:00,59.5,48.9,30.33,East,90,0.0,0.0,68,0.00,,---,0.00,VWS V14.01,2013-06-22 04:16:00,
2013-06-22 00:21:00,59.3,48.8,30.33,East,90,0.0,0.0,68,0.00,,---,0.00,VWS V14.01,2013-06-22 04:21:00,
2013-06-22 00:26:00,59.1,48.6,30.33,East,90,0.0,0.0,68,0.00,,---,0.00,VWS V14.01,2013-06-22 04:26:00,
2013-06-22 00:31:00,58.8,48.7,30.33,East,90,0.0,0.0,69,0.00,,---,0.00,VWS V14.01,2013-06-22 04:31:00,
2013-06-22 00:36:00,58.8,48.7,30.32,East,90,0.0,0.0,69,0.00,,---,0.00,VWS V14.01,2013-06-22 04:36:00,
2013-06-22 00:41:00,58.6,48.5,30.32,East,90,0.0,0.0,69,0.00,,---,0.00,VWS V14.01,2013-06-22 04:41:00,
2013-06-22 00:46:00,58.4,48.3,30.32,East,90,0.0,0.0,69,0.00,,---,0.00,VWS V14.01,2013-06-22 04:46:00,
2013-06-22 00:51:00,58.2,48.1,30.33,East,90,0.0,0.0,69,0.00,,---,0.00,VWS V14.01,2013-06-22 04:51:00,
2013-06-22 00:56:00,58.2,48.1,30.32,East,90,0.0,0.0,69,0.00,,---,0.00,VWS V14.01,2013-06-22 04:56:00,
2013-06-22 01:01:00,58.1,48.0,30.32,East,90,0.0,0.0,69,0.00,,---,0.00,VWS V14.01,2013-06-22 05:01:00,
2013-06-22 01:06:00,57.9,48.2,30.32,East,90,0.0,0.0,70,0.00,,---,0.00,VWS V14.01,2013-06-22 05:06:00,
2013-06-22 01:11:00,57.9,48.2,30.32,East,90,0.0,0.0,70,0.00,,---,0.00,VWS V14.01,2013-06-22 05:11:00,
2013-06-22 01:16:00,57.7,48.0,30.32,East,90,0.0,0.0,70,0.00,,---,0.00,VWS V14.01,2013-06-22 05:16:00,
2013-06-22 01:21:00,57.5,47.8,30.32,East,90,0.0,0.0,70,0.00,,---,0.00,VWS V14.01,2013-06-22 05:21:00,
2013-06-22 01:26:00,57.3,47.6,30.31,East,90,0.0,0.0,70,0.00,,---,0.00,VWS V14.01,2013-06-22 05:26:00,
2013-06-22 01:31:00,57.3,48.0,30.31,East,90,0.0,0.0,71,0.00,,---,0.00,VWS V14.01,2013-06-22 05:31:00,
2013-06-22 01:36:00,57.0,47.7,30.31,East,90,0.0,0.0,71,0.00,,---,0.00,VWS V14.01,2013-06-22 05:36:00,
2013-06-22 01:41:00,57.0,47.7,30.31,East,90,0.0,0.0,71,0.00,,---,0.00,VWS V14.01,2013-06-22 05:41:00,
2013-06-22 01:46:00,56.8,47.5,30.31,East,90,0.0,0.0,71,0.00,,---,0.00,VWS V14.01,2013-06-22 05:46:00,
2013-06-22 01:51:00,56.8,47.5,30.31,East,90,0.0,0.0,71,0.00,,---,0.00,VWS V14.01,2013-06-22 05:51:00,
2013-06-22 01:56:00,56.4,47.1,30.31,East,90,0.0,0.0,71,0.00,,---,0.00,VWS V14.01,2013-06-22 05:56:00,
2013-06-22 02:01:00,56.4,47.1,30.31,East,90,0.0,0.0,71,0.00,,---,0.00,VWS V14.01,2013-06-22 06:01:00,
2013-06-22 02:06:00,56.4,47.1,30.31,East,90,0.0,0.0,71,0.00,,---,0.00,VWS V14.01,2013-06-22 06:06:00,
2013-06-22 02:11:00,56.3,47.4,30.31,East,90,0.0,0.0,72,0.00,,---,0.00,VWS V14.01,2013-06-22 06:11:00,
2013-06-22 02:16:00,56.1,47.2,30.31,East,90,0.0,0.0,72,0.00,,---,0.00,VWS V14.01,2013-06-22 06:16:00,
2013-06-22 02:21:00,56.1,47.2,30.31,East,90,0.0,0.0,72,0.00,,---,0.00,VWS V14.01,2013-06-22 06:21:00,
2013-06-22 02:26:00,55.9,47.0,30.31,East,90,0.0,0.0,72,0.00,,---,0.00,VWS V14.01,2013-06-22 06:26:00,
2013-06-22 02:31:00,55.9,47.0,30.31,East,90,0.0,0.0,72,0.00,,---,0.00,VWS V14.01,2013-06-22 06:31:00,
2013-06-22 02:36:00,55.9,47.0,30.31,East,90,0.0,0.0,72,0.00,,---,0.00,VWS V14.01,2013-06-22 06:36:00,
2013-06-22 02:41:00,55.7,47.2,30.31,East,90,0.0,0.0,73,0.00,,---,0.00,VWS V14.01,2013-06-22 06:41:00,
2013-06-22 02:46:00,55.5,46.6,30.31,East,90,0.0,0.0,72,0.00,,---,0.00,VWS V14.01,2013-06-22 06:46:00,
2013-06-22 02:51:00,55.5,46.6,30.31,East,90,0.0,0.0,72,0.00,,---,0.00,VWS V14.01,2013-06-22 06:51:00,
2013-06-22 02:56:00,55.4,46.9,30.31,East,90,0.0,0.0,73,0.00,,---,0.00,VWS V14.01,2013-06-22 06:56:00,
2013-06-22 03:01:00,55.2,46.7,30.31,East,90,0.0,0.0,73,0.00,,---,0.00,VWS V14.01,2013-06-22 07:01:00,
2013-06-22 03:06:00,55.2,46.7,30.30,East,90,0.0,0.0,73,0.00,,---,0.00,VWS V14.01,2013-06-22 07:06:00,
2013-06-22 03:11:00,55.2,46.7,30.30,East,90,0.0,0.0,73,0.00,,---,0.00,VWS V14.01,2013-06-22 07:11:00,
2013-06-22 03:16:00,55.2,46.7,30.30,East,90,0.0,0.0,73,0.00,,---,0.00,VWS V14.01,2013-06-22 07:16:00,
2013-06-22 03:21:00,55.0,46.5,30.30,East,90,0.0,0.0,73,0.00,,---,0.00,VWS V14.01,2013-06-22 07:21:00,
2013-06-22 03:26:00,54.8,46.3,30.30,East,90,0.0,0.0,73,0.00,,---,0.00,VWS V14.01,2013-06-22 07:26:00,
2013-06-22 03:31:00,54.6,46.1,30.30,East,90,0.0,0.0,73,0.00,,---,0.00,VWS V14.01,2013-06-22 07:31:00,
2013-06-22 03:36:00,54.6,46.5,30.30,East,90,0.0,0.0,74,0.00,,---,0.00,VWS V14.01,2013-06-22 07:36:00,
2013-06-22 03:41:00,54.6,46.5,30.30,East,90,0.0,0.0,74,0.00,,---,0.00,VWS V14.01,2013-06-22 07:41:00,
2013-06-22 03:46:00,54.5,46.4,30.29,East,90,0.0,0.0,74,0.00,,---,0.19,VWS V14.01,2013-06-22 07:46:00,
2013-06-22 03:51:00,54.5,46.4,30.29,East,90,0.0,0.0,74,0.00,,---,0.00,VWS V14.01,2013-06-22 07:51:00,
2013-06-22 03:56:00,54.3,46.2,30.29,East,90,0.0,0.0,74,0.00,,---,0.00,VWS V14.01,2013-06-22 07:56:00,
2013-06-22 04:01:00,54.3,46.2,30.29,East,90,0.0,0.0,74,0.00,,---,0.00,VWS V14.01,2013-06-22 08:01:00,
2013-06-22 04:06:00,54.3,46.2,30.29,North,0,0.0,0.0,74,0.00,,---,0.00,VWS V14.01,2013-06-22 08:06:00,
2013-06-22 04:11:00,54.3,46.2,30.28,East,90,0.0,0.0,74,0.00,,---,0.19,VWS V14.01,2013-06-22 08:11:00,
2013-06-22 04:16:00,54.3,46.2,30.29,East,90,0.0,0.0,74,0.00,,---,0.00,VWS V14.01,2013-06-22 08:16:00,
2013-06-22 04:21:00,54.1,46.4,30.29,East,90,0.0,0.0,75,0.00,,---,0.00,VWS V14.01,2013-06-22 08:21:00,
2013-06-22 04:26:00,54.1,46.4,30.29,East,90,0.0,0.0,75,0.00,,---,0.00,VWS V14.01,2013-06-22 08:26:00,
2013-06-22 04:31:00,54.1,46.4,30.29,East,90,0.0,0.0,75,0.00,,---,0.00,VWS V14.01,2013-06-22 08:31:00,
2013-06-22 04:36:00,54.1,46.4,30.29,East,90,0.0,0.0,75,0.00,,---,0.00,VWS V14.01,2013-06-22 08:36:00,
2013-06-22 04:41:00,54.1,46.4,30.29,East,90,0.0,0.0,75,0.00,,---,0.00,VWS V14.01,2013-06-22 08:41:00,
2013-06-22 04:46:00,54.1,46.4,30.29,East,90,0.0,0.0,75,0.00,,---,0.00,VWS V14.01,2013-06-22 08:46:00,
2013-06-22 04:51:00,54.3,46.6,30.29,East,90,0.0,0.0,75,0.00,,---,0.00,VWS V14.01,2013-06-22 08:51:00,
2013-06-22 04:56:00,54.3,46.6,30.29,East,90,0.0,0.0,75,0.00,,---,0.00,VWS V14.01,2013-06-22 08:56:00,
2013-06-22 05:01:00,54.3,46.6,30.29,East,90,0.0,0.0,75,0.00,,---,0.19,VWS V14.01,2013-06-22 09:01:00,
2013-06-22 05:06:00,54.3,46.9,30.29,East,90,0.0,0.0,76,0.00,,---,0.00,VWS V14.01,2013-06-22 09:06:00,
2013-06-22 05:11:00,54.3,46.9,30.29,East,90,0.0,0.0,76,0.00,,---,0.00,VWS V14.01,2013-06-22 09:11:00,
2013-06-22 05:16:00,54.3,46.9,30.29,East,90,0.0,0.0,76,0.00,,---,0.00,VWS V14.01,2013-06-22 09:16:00,
2013-06-22 05:21:00,54.3,46.9,30.29,East,90,0.0,0.0,76,0.00,,---,0.00,VWS V14.01,2013-06-22 09:21:00,
2013-06-22 05:26:00,54.3,46.9,30.29,East,90,0.0,0.0,76,0.00,,---,0.00,VWS V14.01,2013-06-22 09:26:00,
2013-06-22 05:31:00,54.3,46.9,30.29,East,90,0.0,0.0,76,0.00,,---,0.00,VWS V14.01,2013-06-22 09:31:00,
2013-06-22 05:36:00,54.3,46.9,30.28,East,90,0.0,0.0,76,0.00,,---,0.00,VWS V14.01,2013-06-22 09:36:00,
2013-06-22 05:41:00,54.5,47.1,30.28,East,90,0.0,0.0,76,0.00,,---,0.00,VWS V14.01,2013-06-22 09:41:00,
2013-06-22 05:46:00,54.5,47.5,30.28,East,90,0.0,0.0,77,0.00,,---,0.00,VWS V14.01,2013-06-22 09:46:00,
2013-06-22 05:51:00,54.5,47.5,30.27,East,90,0.0,0.0,77,0.00,,---,0.00,VWS V14.01,2013-06-22 09:51:00,
2013-06-22 05:56:00,54.5,47.5,30.27,East,90,0.0,0.0,77,0.00,,---,0.00,VWS V14.01,2013-06-22 09:56:00,
2013-06-22 06:01:00,54.6,47.5,30.26,East,90,0.0,0.0,77,0.00,,---,0.19,VWS V14.01,2013-06-22 10:01:00,
2013-06-22 06:06:00,54.6,47.5,30.27,East,90,0.0,0.0,77,0.00,,---,0.00,VWS V14.01,2013-06-22 10:06:00,
2013-06-22 06:11:00,54.6,47.5,30.27,East,90,0.0,0.0,77,0.00,,---,0.00,VWS V14.01,2013-06-22 10:11:00,
2013-06-22 06:16:00,54.6,47.5,30.27,East,90,0.0,0.0,77,0.00,,---,0.00,VWS V14.01,2013-06-22 10:16:00,
2013-06-22 06:21:00,54.8,47.7,30.27,East,90,0.0,0.0,77,0.00,,---,0.00,VWS V14.01,2013-06-22 10:21:00,
2013-06-22 06:26:00,54.8,47.7,30.26,East,90,0.0,0.0,77,0.00,,---,0.00,VWS V14.01,2013-06-22 10:26:00,
2013-06-22 06:31:00,55.0,47.9,30.27,East,90,0.0,0.0,77,0.00,,---,0.00,VWS V14.01,2013-06-22 10:31:00,
2013-06-22 06:36:00,55.0,47.9,30.27,East,90,0.0,0.0,77,0.00,,---,0.00,VWS V14.01,2013-06-22 10:36:00,
2013-06-22 06:41:00,55.0,47.9,30.27,East,90,0.0,0.0,77,0.00,,---,0.00,VWS V14.01,2013-06-22 10:41:00,
2013-06-22 06:46:00,55.0,47.9,30.26,East,90,0.0,0.0,77,0.00,,---,0.00,VWS V14.01,2013-06-22 10:46:00,
2013-06-22 06:51:00,55.0,47.9,30.26,East,90,0.0,0.0,77,0.00,,---,0.00,VWS V14.01,2013-06-22 10:51:00,
2013-06-22 06:56:00,55.0,47.9,30.26,East,90,0.0,0.0,77,0.00,,---,0.00,VWS V14.01,2013-06-22 10:56:00,
2013-06-22 07:01:00,55.0,47.9,30.26,East,90,0.0,0.0,77,0.00,,---,0.00,VWS V14.01,2013-06-22 11:01:00,
2013-06-22 07:06:00,55.2,48.1,30.26,East,90,0.0,0.0,77,0.00,,---,0.00,VWS V14.01,2013-06-22 11:06:00,
2013-06-22 07:11:00,55.2,48.1,30.27,East,90,0.0,0.0,77,0.00,,---,0.00,VWS V14.01,2013-06-22 11:11:00,
2013-06-22 07:16:00,55.2,48.1,30.27,East,90,0.0,0.0,77,0.00,,---,0.00,VWS V14.01,2013-06-22 11:16:00,
2013-06-22 07:21:00,55.5,48.4,30.27,East,90,0.0,0.0,77,0.00,,---,0.00,VWS V14.01,2013-06-22 11:21:00,
2013-06-22 07:26:00,55.7,48.6,30.27,East,90,0.0,0.0,77,0.00,,---,0.00,VWS V14.01,2013-06-22 11:26:00,
2013-06-22 07:31:00,55.9,49.2,30.27,East,90,0.0,0.0,78,0.00,,---,0.00,VWS V14.01,2013-06-22 11:31:00,
2013-06-22 07:36:00,56.1,49.3,30.27,East,90,0.0,0.0,78,0.00,,---,0.00,VWS V14.01,2013-06-22 11:36:00,
2013-06-22 07:41:00,56.4,49.6,30.27,East,90,0.0,0.0,78,0.00,,---,0.00,VWS V14.01,2013-06-22 11:41:00,
2013-06-22 07:46:00,56.8,50.0,30.27,East,90,0.0,0.0,78,0.00,,---,0.00,VWS V14.01,2013-06-22 11:46:00,
2013-06-22 07:51:00,57.0,50.2,30.26,East,90,0.0,0.0,78,0.00,,---,0.00,VWS V14.01,2013-06-22 11:51:00,
2013-06-22 07:56:00,57.3,50.8,30.27,East,90,0.0,0.0,79,0.00,,---,0.00,VWS V14.01,2013-06-22 11:56:00,
2013-06-22 08:01:00,57.5,51.0,30.27,East,90,0.0,0.0,79,0.00,,---,0.19,VWS V14.01,2013-06-22 12:01:00,
2013-06-22 08:06:00,57.9,51.4,30.27,East,90,0.0,0.0,79,0.00,,---,0.00,VWS V14.01,2013-06-22 12:06:00,
2013-06-22 08:11:00,58.2,51.7,30.27,East,90,0.0,0.0,79,0.00,,---,0.00,VWS V14.01,2013-06-22 12:11:00,
2013-06-22 08:16:00,58.6,52.1,30.27,East,90,0.0,0.0,79,0.00,,---,0.00,VWS V14.01,2013-06-22 12:16:00,
2013-06-22 08:21:00,58.8,52.7,30.27,East,90,0.0,0.0,80,0.00,,---,0.00,VWS V14.01,2013-06-22 12:21:00,
2013-06-22 08:26:00,58.8,52.3,30.27,East,90,0.0,0.0,79,0.00,,---,0.00,VWS V14.01,2013-06-22 12:26:00,
2013-06-22 08:31:00,59.5,53.3,30.27,East,90,0.0,0.0,80,0.00,,---,0.00,VWS V14.01,2013-06-22 12:31:00,
2013-06-22 08:36:00,59.7,53.5,30.27,East,90,0.0,0.0,80,0.00,,---,0.00,VWS V14.01,2013-06-22 12:36:00,
2013-06-22 08:41:00,60.0,53.8,30.27,East,90,0.0,0.0,80,0.00,,---,0.00,VWS V14.01,2013-06-22 12:41:00,
2013-06-22 08:46:00,60.4,54.2,30.28,East,90,0.0,0.0,80,0.00,,---,0.00,VWS V14.01,2013-06-22 12:46:00,
2013-06-22 08:51:00,60.8,54.6,30.28,East,90,0.0,0.0,80,0.00,,---,0.00,VWS V14.01,2013-06-22 12:51:00,
2013-06-22 08:56:00,61.1,54.9,30.28,East,90,0.0,0.0,80,0.00,,---,0.00,VWS V14.01,2013-06-22 12:56:00,
2013-06-22 09:01:00,61.7,55.5,30.28,NE,45,0.0,0.0,80,0.00,,---,0.19,VWS V14.01,2013-06-22 13:01:00,
2013-06-22 09:06:00,62.0,55.8,30.27,NE,45,0.0,0.0,80,0.00,,---,0.00,VWS V14.01,2013-06-22 13:06:00,
2013-06-22 09:11:00,62.4,56.2,30.28,NE,45,0.0,0.0,80,0.00,,---,0.00,VWS V14.01,2013-06-22 13:11:00,
2013-06-22 09:16:00,62.9,56.6,30.28,NE,45,0.0,0.0,80,0.00,,---,0.00,VWS V14.01,2013-06-22 13:16:00,
2013-06-22 09:21:00,63.1,56.8,30.28,NE,45,0.0,0.0,80,0.00,,---,0.00,VWS V14.01,2013-06-22 13:21:00,
2013-06-22 09:26:00,63.6,57.3,30.28,SE,135,0.0,0.0,80,0.00,,---,0.00,VWS V14.01,2013-06-22 13:26:00,
2013-06-22 09:31:00,64.2,57.9,30.27,NW,315,0.0,0.0,80,0.00,,---,0.00,VWS V14.01,2013-06-22 13:31:00,
2013-06-22 09:36:00,64.5,58.2,30.28,NNW,338,0.0,0.0,80,0.00,,---,0.00,VWS V14.01,2013-06-22 13:36:00,
2013-06-22 09:41:00,65.1,58.4,30.27,NNW,338,0.0,0.0,79,0.00,,---,0.00,VWS V14.01,2013-06-22 13:41:00,
2013-06-22 09:46:00,65.4,58.7,30.27,WNW,292,0.0,0.0,79,0.00,,---,0.00,VWS V14.01,2013-06-22 13:46:00,
2013-06-22 09:51:00,66.0,59.0,30.28,SSE,158,0.0,0.0,78,0.00,,---,0.00,VWS V14.01,2013-06-22 13:51:00,
2013-06-22 09:56:00,66.3,59.2,30.28,ENE,68,0.0,0.0,78,0.00,,---,0.00,VWS V14.01,2013-06-22 13:56:00,
2013-06-22 10:01:00,66.7,59.3,30.28,South,180,0.0,0.0,77,0.00,,---,0.19,VWS V14.01,2013-06-22 14:01:00,
2013-06-22 10:06:00,66.9,59.5,30.27,NW,315,0.0,0.0,77,0.00,,---,0.00,VWS V14.01,2013-06-22 14:06:00,
2013-06-22 10:11:00,67.1,59.7,30.27,SE,135,0.0,0.0,77,0.00,,---,0.00,VWS V14.01,2013-06-22 14:11:00,
2013-06-22 10:16:00,67.2,59.4,30.27,NW,315,0.0,0.0,76,0.00,,---,0.00,VWS V14.01,2013-06-22 14:16:00,
2013-06-22 10:21:00,67.6,59.8,30.27,NE,45,0.0,0.0,76,0.00,,---,0.00,VWS V14.01,2013-06-22 14:21:00,
2013-06-22 10:26:00,67.8,60.0,30.28,NNW,338,0.0,0.0,76,0.00,,---,0.00,VWS V14.01,2013-06-22 14:26:00,
2013-06-22 10:31:00,68.1,59.9,30.27,SW,225,0.0,0.0,75,0.00,,---,0.00,VWS V14.01,2013-06-22 14:31:00,
2013-06-22 10:36:00,68.5,60.3,30.27,South,180,0.0,0.0,75,0.00,,---,0.00,VWS V14.01,2013-06-22 14:36:00,
2013-06-22 10:41:00,68.7,60.5,30.27,NW,315,0.0,0.0,75,0.00,,---,0.00,VWS V14.01,2013-06-22 14:41:00,
2013-06-22 10:46:00,69.0,60.4,30.27,NW,315,0.0,0.0,74,0.00,,---,0.00,VWS V14.01,2013-06-22 14:46:00,
2013-06-22 10:51:00,69.4,60.8,30.27,SE,135,0.0,0.0,74,0.00,,---,0.00,VWS V14.01,2013-06-22 14:51:00,
2013-06-22 10:56:00,69.9,60.9,30.26,SE,135,0.0,0.0,73,0.00,,---,0.00,VWS V14.01,2013-06-22 14:56:00,
2013-06-22 11:01:00,70.1,60.7,30.26,NNW,338,0.0,0.0,72,0.00,,---,0.19,VWS V14.01,2013-06-22 15:01:00,
2013-06-22 11:06:00,70.3,60.5,30.27,NNW,338,0.0,0.0,71,0.00,,---,0.00,VWS V14.01,2013-06-22 15:06:00,
2013-06-22 11:11:00,70.7,60.5,30.27,WNW,292,0.0,0.0,70,0.00,,---,0.00,VWS V14.01,2013-06-22 15:11:00,
2013-06-22 11:16:00,71.0,60.3,30.27,NW,315,0.0,0.0,69,0.00,,---,0.00,VWS V14.01,2013-06-22 15:16:00,
2013-06-22 11:21:00,71.2,60.5,30.27,NNW,338,0.0,0.0,69,0.00,,---,0.00,VWS V14.01,2013-06-22 15:21:00,
2013-06-22 11:26:00,71.4,60.7,30.26,WNW,292,0.0,0.0,69,0.00,,---,0.00,VWS V14.01,2013-06-22 15:26:00,
2013-06-22 11:31:00,71.7,60.6,30.26,NW,315,3.1,3.1,68,0.00,,---,0.00,VWS V14.01,2013-06-22 15:31:00,
2013-06-22 11:36:00,71.9,60.8,30.26,NW,315,0.0,0.0,68,0.00,,---,0.00,VWS V14.01,2013-06-22 15:36:00,
2013-06-22 11:41:00,72.3,61.2,30.27,WNW,292,0.0,0.0,68,0.00,,---,0.00,VWS V14.01,2013-06-22 15:41:00,
2013-06-22 11:46:00,72.6,61.0,30.27,NW,315,0.0,0.0,67,0.00,,---,0.00,VWS V14.01,2013-06-22 15:46:00,
2013-06-22 11:51:00,73.0,61.4,30.27,NNW,338,0.0,0.0,67,0.00,,---,0.00,VWS V14.01,2013-06-22 15:51:00,
2013-06-22 11:56:00,73.2,61.2,30.27,SE,135,0.0,0.0,66,0.00,,---,0.00,VWS V14.01,2013-06-22 15:56:00,
2013-06-22 12:01:00,73.2,60.7,30.27,NW,315,0.0,0.0,65,0.00,,---,0.19,VWS V14.01,2013-06-22 16:01:00,
2013-06-22 12:06:00,73.5,60.6,30.27,NW,315,0.0,0.0,64,0.00,,---,0.00,VWS V14.01,2013-06-22 16:06:00,
2013-06-22 12:11:00,73.7,60.8,30.26,SE,135,0.0,0.0,64,0.00,,---,0.00,VWS V14.01,2013-06-22 16:11:00,
2013-06-22 12:16:00,74.1,61.2,30.26,SE,135,5.3,5.3,64,0.00,,---,0.00,VWS V14.01,2013-06-22 16:16:00,
2013-06-22 12:21:00,74.8,61.8,30.26,SE,135,0.0,0.0,64,0.00,,---,0.00,VWS V14.01,2013-06-22 16:21:00,
2013-06-22 12:26:00,75.3,61.4,30.26,NNW,338,0.0,0.0,62,0.00,,---,0.00,VWS V14.01,2013-06-22 16:26:00,
2013-06-22 12:31:00,75.5,60.7,30.26,NW,315,0.0,0.0,60,0.00,,---,0.00,VWS V14.01,2013-06-22 16:31:00,
2013-06-22 12:36:00,75.7,60.8,30.26,NNW,338,0.0,0.0,60,0.00,,---,0.00,VWS V14.01,2013-06-22 16:36:00,
2013-06-22 12:41:00,76.2,60.8,30.25,SE,135,0.0,0.0,59,0.00,,---,0.00,VWS V14.01,2013-06-22 16:41:00,
2013-06-22 12:46:00,76.2,60.8,30.26,NW,315,0.0,0.0,59,0.00,,---,0.00,VWS V14.01,2013-06-22 16:46:00,
2013-06-22 12:51:00,76.1,60.3,30.26,NW,315,0.0,0.0,58,0.00,,---,0.00,VWS V14.01,2013-06-22 16:51:00,
2013-06-22 12:56:00,75.9,59.6,30.25,NNW,338,0.0,0.0,57,0.00,,---,0.00,VWS V14.01,2013-06-22 16:56:00,
2013-06-22 13:01:00,75.7,59.4,30.25,North,0,0.0,0.0,57,0.00,,---,0.19,VWS V14.01,2013-06-22 17:01:00,
2013-06-22 13:06:00,75.3,59.0,30.25,West,270,0.0,0.0,57,0.00,,---,0.00,VWS V14.01,2013-06-22 17:06:00,
2013-06-22 13:11:00,75.3,59.0,30.25,North,0,0.0,0.0,57,0.00,,---,0.00,VWS V14.01,2013-06-22 17:11:00,
2013-06-22 13:16:00,75.3,58.5,30.25,NW,315,7.1,7.1,56,0.00,,---,0.00,VWS V14.01,2013-06-22 17:16:00,
2013-06-22 13:21:00,75.0,58.8,30.25,WNW,292,0.0,0.0,57,0.00,,---,0.00,VWS V14.01,2013-06-22 17:21:00,
2013-06-22 13:26:00,75.0,59.2,30.25,West,270,0.0,0.0,58,0.00,,---,0.00,VWS V14.01,2013-06-22 17:26:00,
2013-06-22 13:31:00,75.0,59.2,30.25,NW,315,0.0,0.0,58,0.00,,---,0.00,VWS V14.01,2013-06-22 17:31:00,
2013-06-22 13:36:00,75.0,59.2,30.25,NW,315,0.0,0.0,58,0.00,,---,0.00,VWS V14.01,2013-06-22 17:36:00,
2013-06-22 13:41:00,75.3,60.0,30.25,North,0,0.0,0.0,59,0.00,,---,0.00,VWS V14.01,2013-06-22 17:41:00,
2013-06-22 13:46:00,75.3,59.5,30.24,WSW,248,0.0,0.0,58,0.00,,---,0.00,VWS V14.01,2013-06-22 17:46:00,
2013-06-22 13:51:00,75.5,59.7,30.24,NW,315,0.0,0.0,58,0.00,,---,0.00,VWS V14.01,2013-06-22 17:51:00,
2013-06-22 13:56:00,75.7,59.9,30.24,WNW,292,0.0,0.0,58,0.00,,---,0.00,VWS V14.01,2013-06-22 17:56:00,
2013-06-22 14:01:00,75.9,60.1,30.23,NW,315,0.0,0.0,58,0.00,,---,0.19,VWS V14.01,2013-06-22 18:01:00,
2013-06-22 14:06:00,76.2,60.8,30.23,NNW,338,0.0,0.0,59,0.00,,---,0.00,VWS V14.01,2013-06-22 18:06:00,
2013-06-22 14:11:00,76.8,60.9,30.23,SSE,158,0.0,0.0,58,0.00,,---,0.00,VWS V14.01,2013-06-22 18:11:00,
2013-06-22 14:16:00,77.0,61.1,30.23,WNW,292,0.2,0.2,58,0.00,,---,0.00,VWS V14.01,2013-06-22 18:16:00,
2013-06-22 14:21:00,77.3,60.4,30.24,SW,225,0.0,0.0,56,0.00,,---,0.00,VWS V14.01,2013-06-22 18:21:00,
2013-06-22 14:26:00,77.5,60.1,30.23,North,0,0.0,0.0,55,0.00,,---,0.00,VWS V14.01,2013-06-22 18:26:00,
2013-06-22 14:31:00,77.5,60.1,30.23,NNW,338,0.0,0.0,55,0.00,,---,0.00,VWS V14.01,2013-06-22 18:31:00,
2013-06-22 14:36:00,77.5,60.1,30.23,SE,135,0.0,0.0,55,0.00,,---,0.00,VWS V14.01,2013-06-22 18:36:00,
2013-06-22 14:41:00,77.5,60.1,30.23,SE,135,0.0,0.0,55,0.00,,---,0.00,VWS V14.01,2013-06-22 18:41:00,
2013-06-22 14:46:00,77.5,60.1,30.23,SE,135,0.0,0.0,55,0.00,,---,0.00,VWS V14.01,2013-06-22 18:46:00,
2013-06-22 14:50:00,77.5,60.1,30.23,SE,135,0.0,0.0,55,0.00,,---,0.00,VWS V14.01,2013-06-22 18:50:00,
2013-06-22 14:55:00,77.5,60.1,30.23,NNW,338,0.0,0.0,55,0.00,,---,0.00,VWS V14.01,2013-06-22 18:55:00,
2013-06-22 15:00:00,77.7,60.3,30.22,NNW,338,0.0,0.0,55,0.00,,---,0.19,VWS V14.01,2013-06-22 19:00:00,
2013-06-22 15:05:00,77.7,60.3,30.22,West,270,0.0,0.0,55,0.00,,---,0.00,VWS V14.01,2013-06-22 19:05:00,
2013-06-22 15:11:00,77.7,60.3,30.22,SW,225,0.0,0.0,55,0.00,,---,0.00,VWS V14.01,2013-06-22 19:11:00,
2013-06-22 15:16:00,77.7,60.3,30.22,North,0,0.0,0.0,55,0.00,,---,0.00,VWS V14.01,2013-06-22 19:16:00,
2013-06-22 15:21:00,77.7,60.3,30.22,SSE,158,0.0,0.0,55,0.00,,---,0.00,VWS V14.01,2013-06-22 19:21:00,
2013-06-22 15:26:00,77.9,60.5,30.22,NNW,338,0.0,0.0,55,0.00,,---,0.00,VWS V14.01,2013-06-22 19:26:00,
2013-06-22 15:31:00,77.9,60.5,30.22,NW,315,0.0,0.0,55,0.00,,---,0.00,VWS V14.01,2013-06-22 19:31:00,
2013-06-22 15:36:00,77.9,60.5,30.22,NW,315,0.0,0.0,55,0.00,,---,0.00,VWS V14.01,2013-06-22 19:36:00,
2013-06-22 15:41:00,77.9,60.5,30.22,NW,315,0.0,0.0,55,0.00,,---,0.00,VWS V14.01,2013-06-22 19:41:00,
2013-06-22 15:46:00,78.0,60.5,30.22,NNW,338,0.0,0.0,55,0.00,,---,0.00,VWS V14.01,2013-06-22 19:46:00,
2013-06-22 15:51:00,78.2,60.7,30.22,SE,135,0.8,0.8,55,0.00,,---,0.00,VWS V14.01,2013-06-22 19:51:00,
2013-06-22 15:56:00,78.6,61.1,30.22,ESE,112,0.0,0.0,55,0.00,,---,0.00,VWS V14.01,2013-06-22 19:56:00,
2013-06-22 16:01:00,78.6,61.1,30.22,ENE,68,0.0,0.0,55,0.00,,---,0.19,VWS V14.01,2013-06-22 20:01:00,
2013-06-22 16:06:00,78.9,60.9,30.21,North,0,0.0,0.0,54,0.00,,---,0.00,VWS V14.01,2013-06-22 20:06:00,
2013-06-22 16:11:00,78.6,60.1,30.21,West,270,0.0,0.0,53,0.00,,---,0.00,VWS V14.01,2013-06-22 20:11:00,
2013-06-22 16:16:00,78.6,60.1,30.21,ESE,112,0.0,0.0,53,0.00,,---,0.00,VWS V14.01,2013-06-22 20:16:00,
2013-06-22 16:20:00,78.6,60.1,30.21,ENE,68,0.0,0.0,53,0.00,,---,0.00,VWS V14.01,2013-06-22 20:20:00,
2013-06-22 16:25:00,78.6,60.1,30.20,SE,135,0.0,0.0,53,0.00,,---,0.00,VWS V14.01,2013-06-22 20:25:00,
2013-06-22 16:30:00,78.6,60.6,30.21,NW,315,0.0,0.0,54,0.00,,---,0.00,VWS V14.01,2013-06-22 20:30:00,
2013-06-22 16:35:00,78.2,60.2,30.21,WNW,292,0.0,0.0,54,0.00,,---,0.00,VWS V14.01,2013-06-22 20:35:00,
2013-06-22 16:40:00,78.0,60.0,30.20,SE,135,0.0,0.0,54,0.00,,---,0.00,VWS V14.01,2013-06-22 20:40:00,
2013-06-22 16:45:00,77.9,59.9,30.20,SE,135,0.0,0.0,54,0.00,,---,0.00,VWS V14.01,2013-06-22 20:45:00,
2013-06-22 16:50:00,77.7,60.3,30.20,WNW,292,0.0,0.0,55,0.00,,---,0.00,VWS V14.01,2013-06-22 20:50:00,
2013-06-22 16:55:00,77.5,60.1,30.20,WNW,292,0.0,0.0,55,0.00,,---,0.00,VWS V14.01,2013-06-22 20:55:00,
2013-06-22 17:00:00,77.5,60.1,30.20,WNW,292,0.0,0.0,55,0.00,,---,0.19,VWS V14.01,2013-06-22 21:00:00,
2013-06-22 17:05:00,77.5,60.6,30.20,WNW,292,0.0,0.0,56,0.00,,---,0.00,VWS V14.01,2013-06-22 21:05:00,
2013-06-22 17:11:00,77.3,60.4,30.20,WNW,292,0.0,0.0,56,0.00,,---,0.00,VWS V14.01,2013-06-22 21:11:00,
2013-06-22 17:15:00,77.3,60.4,30.20,WNW,292,0.0,0.0,56,0.00,,---,0.00,VWS V14.01,2013-06-22 21:15:00,
2013-06-22 17:20:00,77.3,60.4,30.20,WNW,292,0.0,0.0,56,0.00,,---,0.00,VWS V14.01,2013-06-22 21:20:00,
2013-06-22 17:26:00,77.1,60.2,30.20,WNW,292,0.0,0.0,56,0.00,,---,0.00,VWS V14.01,2013-06-22 21:26:00,
2013-06-22 17:31:00,77.1,60.2,30.20,WNW,292,0.0,0.0,56,0.00,,---,0.00,VWS V14.01,2013-06-22 21:31:00,
2013-06-22 17:36:00,77.1,60.2,30.20,NNW,338,0.0,0.0,56,0.00,,---,0.00,VWS V14.01,2013-06-22 21:36:00,
2013-06-22 17:41:00,76.8,59.4,30.20,West,270,0.0,0.0,55,0.00,,---,0.00,VWS V14.01,2013-06-22 21:41:00,
2013-06-22 17:46:00,76.6,59.8,30.20,West,270,0.0,0.0,56,0.00,,---,0.00,VWS V14.01,2013-06-22 21:46:00,
2013-06-22 17:51:00,76.6,59.2,30.20,WNW,292,0.0,0.0,55,0.00,,---,0.00,VWS V14.01,2013-06-22 21:51:00,
2013-06-22 17:56:00,76.2,59.4,30.20,SE,135,0.0,0.0,56,0.00,,---,0.00,VWS V14.01,2013-06-22 21:56:00,
2013-06-22 18:01:00,76.1,59.3,30.20,SE,135,0.0,0.0,56,0.00,,---,0.19,VWS V14.01,2013-06-22 22:01:00,
2013-06-22 18:06:00,75.9,59.6,30.20,North,0,0.0,0.0,57,0.00,,---,0.00,VWS V14.01,2013-06-22 22:06:00,
2013-06-22 18:11:00,75.7,58.9,30.20,SE,135,0.0,0.0,56,0.00,,---,0.00,VWS V14.01,2013-06-22 22:11:00,
2013-06-22 18:16:00,75.5,58.7,30.20,SE,135,0.0,0.0,56,0.00,,---,0.00,VWS V14.01,2013-06-22 22:16:00,
2013-06-22 18:21:00,75.3,59.0,30.20,SE,135,0.0,0.0,57,0.00,,---,0.00,VWS V14.01,2013-06-22 22:21:00,
2013-06-22 18:26:00,75.0,58.8,30.20,SE,135,0.0,0.0,57,0.00,,---,0.00,VWS V14.01,2013-06-22 22:26:00,
2013-06-22 18:31:00,74.8,58.6,30.20,SE,135,0.0,0.0,57,0.00,,---,0.00,VWS V14.01,2013-06-22 22:31:00,
2013-06-22 18:36:00,74.6,58.9,30.20,SE,135,0.0,0.0,58,0.00,,---,0.00,VWS V14.01,2013-06-22 22:36:00,
2013-06-22 18:41:00,74.4,58.7,30.19,SE,135,0.0,0.0,58,0.00,,---,0.00,VWS V14.01,2013-06-22 22:41:00,
2013-06-22 18:46:00,74.4,58.7,30.20,SE,135,0.0,0.0,58,0.00,,---,0.00,VWS V14.01,2013-06-22 22:46:00,
2013-06-22 18:51:00,74.1,58.9,30.20,SE,135,0.0,0.0,59,0.00,,---,0.00,VWS V14.01,2013-06-22 22:51:00,
2013-06-22 18:56:00,73.9,59.2,30.20,SE,135,0.0,0.0,60,0.00,,---,0.00,VWS V14.01,2013-06-22 22:56:00,
2013-06-22 19:01:00,73.7,59.0,30.20,SE,135,0.0,0.0,60,0.00,,---,0.19,VWS V14.01,2013-06-22 23:01:00,
2013-06-22 19:06:00,73.5,58.8,30.20,SE,135,0.0,0.0,60,0.00,,---,0.00,VWS V14.01,2013-06-22 23:06:00,
2013-06-22 19:11:00,73.4,58.7,30.19,SE,135,0.0,0.0,60,0.00,,---,0.00,VWS V14.01,2013-06-22 23:11:00,
2013-06-22 19:16:00,73.2,58.5,30.20,SE,135,0.0,0.0,60,0.00,,---,0.00,VWS V14.01,2013-06-22 23:16:00,
2013-06-22 19:21:00,73.2,58.5,30.20,SE,135,0.0,0.0,60,0.00,,---,0.00,VWS V14.01,2013-06-22 23:21:00,
2013-06-22 19:26:00,73.0,58.8,30.20,SE,135,0.0,0.0,61,0.00,,---,0.00,VWS V14.01,2013-06-22 23:26:00,
2013-06-22 19:31:00,72.8,58.6,30.20,SE,135,0.0,0.0,61,0.00,,---,0.00,VWS V14.01,2013-06-22 23:31:00,
2013-06-22 19:36:00,72.5,58.3,30.20,SE,135,0.0,0.0,61,0.00,,---,0.00,VWS V14.01,2013-06-22 23:36:00,
2013-06-22 19:41:00,72.3,58.6,30.20,SE,135,0.0,0.0,62,0.00,,---,0.00,VWS V14.01,2013-06-22 23:41:00,
2013-06-22 19:46:00,72.1,58.4,30.20,SE,135,0.0,0.0,62,0.00,,---,0.00,VWS V14.01,2013-06-22 23:46:00,
2013-06-22 19:51:00,71.9,58.6,30.20,SE,135,0.0,0.0,63,0.00,,---,0.00,VWS V14.01,2013-06-22 23:51:00,
2013-06-22 19:56:00,71.7,58.9,30.20,SE,135,0.0,0.0,64,0.00,,---,0.00,VWS V14.01,2013-06-22 23:56:00,
2013-06-22 20:01:00,71.4,59.5,30.21,SE,135,0.0,0.0,66,0.00,,---,0.19,VWS V14.01,2013-06-23 00:01:00,
2013-06-22 20:06:00,71.2,59.3,30.20,SE,135,0.0,0.0,66,0.00,,---,0.00,VWS V14.01,2013-06-23 00:06:00,
2013-06-22 20:11:00,70.8,59.3,30.21,SE,135,0.0,0.0,67,0.02,,---,0.02,VWS V14.01,2013-06-23 00:11:00,
2013-06-22 20:16:00,70.7,59.2,30.20,SE,135,0.0,0.0,67,0.02,,---,0.02,VWS V14.01,2013-06-23 00:16:00,
2013-06-22 20:21:00,70.5,59.0,30.20,SE,135,0.0,0.0,67,0.02,,---,0.02,VWS V14.01,2013-06-23 00:21:00,
2013-06-22 20:26:00,70.3,59.2,30.20,SE,135,0.0,0.0,68,0.02,,---,0.02,VWS V14.01,2013-06-23 00:26:00,
2013-06-22 20:31:00,69.9,59.3,30.19,SE,135,0.0,0.0,69,0.02,,---,0.02,VWS V14.01,2013-06-23 00:31:00,
2013-06-22 20:36:00,69.8,59.2,30.19,SE,135,0.0,0.0,69,0.02,,---,0.02,VWS V14.01,2013-06-23 00:36:00,
2013-06-22 20:41:00,69.6,59.4,30.19,SE,135,0.0,0.0,70,0.02,,---,0.02,VWS V14.01,2013-06-23 00:41:00,
2013-06-22 20:46:00,69.6,59.4,30.19,SE,135,0.0,0.0,70,0.02,,---,0.02,VWS V14.01,2013-06-23 00:46:00,
2013-06-22 20:51:00,69.0,58.8,30.19,SE,135,0.0,0.0,70,0.02,,---,0.02,VWS V14.01,2013-06-23 00:51:00,
2013-06-22 20:56:00,69.0,58.8,30.19,SE,135,0.0,0.0,70,0.02,,---,0.02,VWS V14.01,2013-06-23 00:56:00,
2013-06-22 21:01:00,68.9,59.1,30.19,SE,135,0.0,0.0,71,0.02,,---,0.19,VWS V14.01,2013-06-23 01:01:00,
2013-06-22 21:05:00,68.7,58.9,30.19,SE,135,0.0,0.0,71,0.02,,---,0.02,VWS V14.01,2013-06-23 01:05:00,
2013-06-22 21:10:00,68.7,58.9,30.19,SE,135,0.0,0.0,71,0.00,,---,0.02,VWS V14.01,2013-06-23 01:10:00,
2013-06-22 21:15:00,68.5,59.1,30.19,SE,135,0.0,0.0,72,0.00,,---,0.02,VWS V14.01,2013-06-23 01:15:00,
2013-06-22 21:20:00,68.3,58.9,30.19,SE,135,0.0,0.0,72,0.00,,---,0.02,VWS V14.01,2013-06-23 01:20:00,
2013-06-22 21:25:00,68.1,58.7,30.20,SE,135,0.0,0.0,72,0.00,,---,0.02,VWS V14.01,2013-06-23 01:25:00,
2013-06-22 21:30:00,68.1,58.7,30.20,SE,135,0.0,0.0,72,0.00,,---,0.02,VWS V14.01,2013-06-23 01:30:00,
2013-06-22 21:35:00,67.8,58.8,30.19,SE,135,0.0,0.0,73,0.00,,---,0.02,VWS V14.01,2013-06-23 01:35:00,
2013-06-22 21:40:00,67.8,58.8,30.20,SE,135,0.0,0.0,73,0.00,,---,0.02,VWS V14.01,2013-06-23 01:40:00,
2013-06-22 21:45:00,67.8,58.8,30.19,SE,135,0.0,0.0,73,0.00,,---,0.02,VWS V14.01,2013-06-23 01:45:00,
2013-06-22 21:50:00,67.6,58.7,30.20,SE,135,0.0,0.0,73,0.00,,---,0.02,VWS V14.01,2013-06-23 01:50:00,
2013-06-22 21:55:00,67.2,58.3,30.20,SE,135,0.0,0.0,73,0.00,,---,0.02,VWS V14.01,2013-06-23 01:55:00,
2013-06-22 22:00:00,67.1,58.5,30.20,SE,135,0.0,0.0,74,0.00,,---,0.19,VWS V14.01,2013-06-23 02:00:00,
2013-06-22 22:05:00,66.9,58.3,30.20,SE,135,0.0,0.0,74,0.00,,---,0.02,VWS V14.01,2013-06-23 02:05:00,
2013-06-22 22:10:00,66.9,58.3,30.20,SE,135,0.0,0.0,74,0.00,,---,0.02,VWS V14.01,2013-06-23 02:10:00,
2013-06-22 22:15:00,66.7,58.2,30.20,SE,135,0.0,0.0,74,0.00,,---,0.02,VWS V14.01,2013-06-23 02:15:00,
2013-06-22 22:20:00,66.5,58.0,30.20,SE,135,0.0,0.0,74,0.00,,---,0.02,VWS V14.01,2013-06-23 02:20:00,
2013-06-22 22:25:00,66.3,58.2,30.20,SE,135,0.0,0.0,75,0.00,,---,0.02,VWS V14.01,2013-06-23 02:25:00,
2013-06-22 22:30:00,66.2,58.0,30.19,SE,135,0.0,0.0,75,0.00,,---,0.02,VWS V14.01,2013-06-23 02:30:00,
2013-06-22 22:35:00,66.0,57.5,30.20,SE,135,0.0,0.0,74,0.00,,---,0.02,VWS V14.01,2013-06-23 02:35:00,
2013-06-22 22:40:00,66.0,57.9,30.20,SE,135,0.0,0.0,75,0.00,,---,0.02,VWS V14.01,2013-06-23 02:40:00,
2013-06-22 22:45:00,65.8,57.7,30.20,SE,135,0.0,0.0,75,0.00,,---,0.02,VWS V14.01,2013-06-23 02:45:00,
2013-06-22 22:50:00,65.6,57.5,30.20,SE,135,0.0,0.0,75,0.00,,---,0.02,VWS V14.01,2013-06-23 02:50:00,
2013-06-22 22:55:00,65.4,57.3,30.20,SE,135,0.0,0.0,75,0.00,,---,0.02,VWS V14.01,2013-06-23 02:55:00,
2013-06-22 23:00:00,65.4,57.3,30.20,SE,135,0.0,0.0,75,0.00,,---,0.19,VWS V14.01,2013-06-23 03:00:00,
2013-06-22 23:05:00,65.3,57.2,30.20,SE,135,0.0,0.0,75,0.00,,---,0.02,VWS V14.01,2013-06-23 03:05:00,
2013-06-22 23:10:00,65.3,57.5,30.20,SE,135,0.0,0.0,76,0.00,,---,0.02,VWS V14.01,2013-06-23 03:10:00,
2013-06-22 23:15:00,65.1,57.4,30.20,SE,135,0.0,0.0,76,0.00,,---,0.02,VWS V14.01,2013-06-23 03:15:00,
2013-06-22 23:20:00,65.1,57.4,30.20,SE,135,0.0,0.0,76,0.00,,---,0.02,VWS V14.01,2013-06-23 03:20:00,
2013-06-22 23:25:00,64.9,57.2,30.20,SE,135,0.0,0.0,76,0.00,,---,0.02,VWS V14.01,2013-06-23 03:25:00,
2013-06-22 23:30:00,64.9,57.2,30.20,SE,135,0.0,0.0,76,0.00,,---,0.02,VWS V14.01,2013-06-23 03:30:00,
2013-06-22 23:35:00,64.9,57.5,30.20,SE,135,0.0,0.0,77,0.00,,---,0.02,VWS V14.01,2013-06-23 03:35:00,
2013-06-22 23:40:00,64.7,57.3,30.20,SE,135,0.0,0.0,77,0.00,,---,0.02,VWS V14.01,2013-06-23 03:40:00,
2013-06-22 23:45:00,64.7,57.7,30.20,SE,135,0.0,0.0,78,0.00,,---,0.02,VWS V14.01,2013-06-23 03:45:00,
2013-06-22 23:50:00,64.5,57.5,30.20,SE,135,0.0,0.0,78,0.00,,---,0.02,VWS V14.01,2013-06-23 03:50:00,
2013-06-22 23:55:00,64.5,57.5,30.20,SE,135,0.0,0.0,78,0.00,,---,0.02,VWS V14.01,2013-06-23 03:55:00,